Wind_Speed
11 10 11 11 11 11 11 11 12 11 11 11 10 10 9 9 8 7 7 6 5 5 4 3 3 3 3 3 3 3 4 4 5 6 6 6 6 7 7 8 8 8 9
10 9 10 10 10 10 11 11 11 10 11 11 10 10 10 10 9 8 7 6 6 5 4 3 3 3 3 3 4 4 5 5 6 6 6 6 7 8 8 8 9 10 10
8 8 8 8 9 9 10 10 10 9 10 10 10 10 10 9 9 8 7 5 5 4 3 3 2 3 4 4 5 5 5 5 6 7 7 7 8 9 9 9 10 11 11
6 6 6 7 8 8 8 8 8 8 9 9 9 9 9 8 8 7 6 5 4 4 3 3 3 3 4 5 6 6 6 6 7 7 8 8 9 9 10 10 11 11 12
4 5 5 5 6 6 6 6 7 7 7 8 8 7 7 7 7 7 6 6 5 4 4 4 4 5 6 6 7 6 7 7 8 8 9 9 9 10 11 11 12 12 12
3 3 3 3 4 4 5 5 5 6 6 6 6 6 7 7 6 6 6 6 6 5 5 5 5 6 7 7 7 8 8 8 9 9 9 10 10 11 11 12 13 13 13
3 2 1 2 2 3 3 4 4 4 5 5 4 4 5 5 5 5 5 6 6 6 6 6 7 8 8 8 8 9 9 9 9 10 10 10 11 12 13 13 14 14 13
3 3 2 1 1 1 2 2 3 4 4 5 4 4 4 4 5 6 7 7 7 7 7 8 8 9 9 10 10 11 11 11 11 11 11 11 12 13 14 14 14 14 14
5 5 4 4 3 2 1 1 2 2 3 4 4 4 4 5 5 7 7 8 8 8 8 8 10 10 11 12 12 11 12 12 12 12 12 13 13 14 14 15 15 15 14
7 8 7 7 6 4 3 2 2 2 3 4 4 5 5 6 6 7 8 8 9 9 10 10 11 12 13 13 13 12 12 13 13 14 14 15 15 15 15 16 16 15 15
9 10 10 9 9 8 6 4 4 4 4 4 5 6 6 7 7 8 8 9 9 10 11 12 13 13 13 13 13 13 13 14 15 15 15 16 16 16 16 16 17 16 16
11 11 11 10 10 9 9 8 7 5 5 6 6 7 8 8 9 9 9 10 10 11 12 13 14 15 14 14 14 14 15 15 16 17 17 17 17 17 17 17 17 18 17
13 13 12 11 10 10 9 9 9 8 8 8 9 9 9 10 10 11 11 12 12 13 14 14 15 15 15 16 16 16 16 17 17 18 18 18 18 19 19 18 17 18 18
16 15 14 13 12 12 11 11 11 11 11 11 11 11 11 12 13 13 13 14 15 16 16 16 16 16 17 17 17 18 19 19 19 19 20 19 20 20 20 19 19 19 20
19 17 17 16 15 14 13 14 13 13 13 13 13 13 13 14 15 15 15 16 17 18 18 18 18 19 20 20 19 20 21 21 21 21 21 21 21 21 21 21 21 20 21
20 19 19 19 18 17 15 14 15 15 15 14 15 16 16 16 16 16 17 18 19 19 20 20 21 21 22 22 22 23 23 23 23 24 23 23 23 22 22 22 22 21 22
21 21 20 20 19 18 16 17 16 17 17 17 17 18 18 19 19 19 20 20 21 21 21 22 23 24 24 24 24 24 24 25 25 26 26 26 25 24 24 23 22 23 23
23 22 23 22 21 21 20 19 19 18 19 20 20 20 20 21 22 22 22 22 23 24 24 25 26 26 26 25 25 25 26 26 26 26 26 26 26 26 25 24 24 24 24
27 26 24 25 25 24 23 22 22 22 22 22 21 21 22 22 23 23 24 25 25 27 27 27 28 28 28 27 27 27 27 27 26 27 27 27 27 27 26 25 25 25 25
28 27 27 27 28 27 27 26 26 26 25 24 24 25 26 26 26 25 26 27 28 28 29 29 29 29 29 29 29 29 28 28 27 28 28 28 28 27 26 26 26 26 26
30 30 30 30 30 30 31 30 29 28 28 27 27 28 29 29 29 29 29 30 31 31 32 32 32 31 30 30 30 29 29 29 29 29 29 28 28 27 27 27 27 27 27
32 33 34 34 34 34 34 33 33 32 31 31 31 32 32 32 32 32 32 32 32 33 33 33 33 33 32 32 31 30 30 30 31 31 30 29 29 28 28 29 28 28 28
35 35 36 36 36 36 36 36 35 34 33 33 33 33 34 34 33 33 34 34 33 33 34 34 34 33 33 33 32 31 31 31 31 31 30 30 30 30 30 30 30 30 30
38 37 37 37 37 38 38 37 35 35 34 34 34 35 35 34 35 35 35 35 34 34 34 35 34 33 34 34 33 33 32 32 32 32 33 32 32 32 32 32 31 31 31
37 38 38 38 38 39 38 38 37 36 35 36 36 35 35 36 36 36 36 35 35 34 35 34 34 34 34 34 34 34 33 33 34 35 35 35 34 34 34 33 33 33 32
38 38 39 39 39 39 39 39 39 38 37 37 37 36 37 37 36 36 36 35 35 35 34 34 34 34 34 34 34 34 34 34 35 36 36 35 35 35 35 34 33 33 33
Wind_Direction
58 63 68 69 70 69 71 73 76 80 81 78 75 73 75 75 76 80 81 84 81 77 74 72 63 43 32 26 18 1 339 324 316 315 313 309 304 314 312 311 310 309 302
61 65 70 69 69 69 69 71 73 75 76 75 76 73 72 71 70 71 76 76 75 71 63 54 44 28 6 355 350 349 344 337 331 327 325 319 316 314 312 312 313 309 304
64 65 65 68 69 70 69 70 73 75 79 76 75 73 71 68 64 64 69 70 65 57 51 42 27 358 348 339 332 329 328 328 328 327 326 321 318 319 316 315 313 311 307
58 67 67 66 66 69 71 72 72 70 75 71 73 70 67 63 59 57 60 56 48 43 34 12 347 341 340 338 332 325 322 321 324 324 322 320 320 319 315 314 313 311 307
42 57 63 62 61 64 67 67 68 68 65 56 62 63 58 57 54 49 45 36 29 22 11 0 352 344 338 336 335 327 321 318 318 320 320 318 315 315 315 314 313 311 307
5 29 52 57 61 60 60 60 60 57 52 46 55 62 54 49 48 46 39 25 15 6 1 354 347 343 337 331 329 325 323 320 318 319 318 317 315 312 313 313 313 311 307
319 328 27 49 58 60 58 51 45 40 31 30 47 46 38 34 34 28 18 10 2 359 354 345 337 336 338 333 328 323 318 318 318 319 316 314 314 313 314 315 315 313 310
275 291 302 292 331 27 35 36 30 24 23 33 42 40 31 23 18 12 5 358 357 353 350 345 339 332 330 331 327 324 321 318 319 317 315 314 314 316 316 316 315 315 313
275 273 268 263 262 263 291 345 353 2 3 1 12 18 7 0 360 357 356 353 351 345 340 338 332 326 323 322 324 320 319 316 314 312 312 313 314 317 316 316 315 313 311
281 274 273 264 256 251 252 273 302 314 325 333 339 341 343 344 340 340 341 342 341 339 333 327 327 323 319 316 316 315 314 316 316 315 312 312 312 313 314 315 316 315 311
270 281 283 270 261 258 262 254 264 280 296 308 316 321 322 323 325 327 326 327 327 329 329 325 322 321 317 314 312 312 311 311 311 312 310 309 309 310 311 312 312 312 310
269 273 271 268 264 262 264 258 262 271 282 292 301 306 309 313 315 317 318 317 317 318 318 319 320 320 317 312 308 307 306 307 308 309 308 307 307 309 310 310 309 308 307
269 269 264 261 265 266 267 264 262 270 279 286 291 294 298 303 305 306 309 311 312 313 311 315 318 317 313 308 304 303 303 303 302 304 306 304 307 309 308 307 308 307 307
269 267 266 263 263 263 264 266 264 267 274 279 284 290 294 295 296 297 301 303 306 311 309 308 309 309 308 306 304 305 303 302 303 302 303 304 307 308 308 306 306 306 306
268 268 268 265 265 263 264 265 264 267 272 275 282 286 288 291 295 297 298 300 302 306 308 308 306 306 304 301 301 302 303 302 299 299 299 301 303 304 304 304 304 303 304
266 265 263 262 262 261 263 267 268 270 272 273 279 282 285 288 290 291 293 295 298 301 303 305 304 302 302 298 297 300 301 301 299 300 298 298 298 300 301 301 301 301 302
266 264 263 265 264 263 265 267 274 274 271 271 274 279 282 284 285 287 288 290 294 295 297 298 299 301 302 299 297 297 300 299 299 299 297 297 299 296 297 296 297 297 298
268 267 266 269 270 272 272 273 275 273 272 277 276 276 279 281 283 286 289 291 293 295 295 296 299 300 300 297 297 296 299 299 297 297 297 298 298 295 294 293 295 295 295
266 265 267 271 271 274 273 273 274 275 276 276 277 277 280 283 286 288 289 290 291 292 296 297 301 301 299 296 296 295 297 298 296 296 297 297 297 296 293 293 293 292 291
266 266 266 268 270 272 273 273 273 274 275 275 276 280 282 285 288 287 288 290 292 293 294 295 298 300 299 297 294 294 295 296 296 296 296 296 296 294 294 293 292 291 290
267 267 266 265 268 271 274 275 275 276 275 275 277 280 283 285 287 286 287 290 291 291 291 293 296 297 297 297 296 294 293 294 294 295 295 295 294 292 292 292 292 291 290
263 264 263 264 266 269 271 272 273 274 275 275 276 279 282 283 284 285 287 288 290 291 291 294 295 295 295 294 295 295 293 292 292 293 293 292 291 289 290 290 290 291 290
260 262 262 263 264 267 269 270 270 272 273 274 275 278 281 282 284 284 286 287 289 291 292 293 293 292 292 292 293 293 291 290 290 290 289 289 288 287 287 288 287 288 288
259 260 262 263 265 267 268 269 271 271 271 273 274 277 279 281 283 285 286 287 288 289 290 290 290 290 291 293 294 292 290 289 288 287 287 287 286 286 286 286 286 286 286
260 261 263 264 265 267 267 269 271 270 272 274 275 277 277 279 281 283 284 285 287 288 289 290 289 290 290 292 294 294 291 290 290 289 287 286 286 285 285 284 285 285 285
259 260 262 264 266 266 268 270 271 272 272 274 274 276 278 279 280 282 283 284 286 288 289 289 290 290 291 291 292 293 291 289 289 288 287 286 285 285 285 284 284 285 285
Height
5908 5906 5905 5905 5904 5904 5903 5902 5902 5901 5900 5900 5900 5899 5899 5899 5898 5898 5897 5897 5897 5898 5897 5897 5897 5897 5896 5896 5895 5895 5894 5893 5892 5891 5890 5889 5888 5887 5886 5884 5882 5881 5879
5910 5909 5907 5907 5906 5906 5905 5904 5904 5903 5902 5902 5901 5901 5900 5900 5899 5899 5899 5898 5898 5898 5898 5897 5897 5897 5896 5895 5895 5894 5893 5892 5891 5890 5889 5887 5887 5885 5884 5883 5881 5879 5877
5911 5910 5909 5908 5908 5907 5907 5906 5905 5904 5904 5903 5903 5902 5902 5901 5901 5900 5900 5899 5899 5898 5898 5897 5897 5896 5896 5895 5894 5893 5892 5891 5890 5889 5888 5886 5885 5884 5882 5881 5879 5877 5875
5912 5911 5910 5910 5909 5909 5908 5907 5907 5905 5904 5904 5904 5903 5902 5902 5901 5900 5900 5900 5899 5898 5898 5897 5896 5896 5895 5894 5893 5892 5891 5890 5888 5887 5886 5885 5883 5882 5880 5879 5877 5875 5873
5912 5911 5911 5910 5910 5910 5909 5908 5908 5907 5906 5905 5905 5904 5903 5902 5902 5901 5900 5900 5899 5898 5897 5896 5895 5895 5894 5893 5891 5890 5889 5888 5886 5885 5883 5882 5881 5879 5878 5876 5874 5872 5870
5912 5911 5911 5911 5910 5910 5909 5909 5908 5907 5906 5905 5905 5904 5904 5903 5902 5901 5900 5900 5899 5898 5896 5895 5894 5893 5892 5891 5890 5889 5887 5886 5884 5883 5881 5880 5878 5877 5875 5873 5871 5869 5867
5911 5911 5911 5910 5910 5910 5909 5909 5908 5908 5907 5905 5904 5903 5903 5903 5902 5901 5900 5899 5898 5897 5895 5894 5894 5892 5891 5890 5888 5887 5885 5884 5882 5881 5879 5878 5876 5874 5872 5870 5868 5866 5864
5909 5910 5910 5910 5910 5909 5909 5909 5908 5907 5906 5904 5903 5903 5903 5902 5901 5900 5899 5898 5897 5895 5894 5893 5892 5891 5890 5888 5886 5885 5883 5881 5880 5878 5877 5875 5873 5871 5869 5867 5865 5863 5861
5907 5908 5908 5908 5908 5908 5908 5908 5907 5906 5905 5905 5904 5903 5903 5902 5901 5900 5899 5897 5896 5894 5893 5892 5891 5889 5888 5886 5884 5883 5881 5879 5877 5876 5874 5872 5870 5868 5866 5864 5862 5860 5858
5905 5906 5906 5906 5906 5907 5906 5906 5906 5906 5905 5904 5903 5903 5902 5901 5900 5899 5898 5896 5894 5893 5891 5890 5889 5887 5885 5883 5882 5880 5878 5877 5875 5873 5871 5869 5867 5865 5863 5861 5859 5856 5854
5901 5902 5903 5903 5904 5904 5904 5904 5904 5904 5903 5903 5902 5901 5901 5900 5898 5897 5896 5894 5892 5891 5889 5888 5886 5884 5882 5881 5879 5877 5875 5874 5872 5870 5868 5866 5863 5861 5859 5857 5855 5853 5851
5898 5899 5899 5900 5901 5901 5901 5901 5901 5901 5901 5901 5900 5899 5898 5897 5896 5895 5893 5892 5890 5888 5886 5885 5883 5881 5879 5877 5876 5874 5872 5870 5868 5866 5864 5862 5860 5858 5855 5853 5851 5848 5846
5894 5895 5896 5896 5897 5897 5898 5899 5898 5899 5899 5898 5898 5897 5895 5894 5893 5892 5890 5889 5887 5885 5883 5881 5880 5877 5875 5873 5871 5869 5868 5866 5864 5862 5860 5857 5855 5853 5851 5848 5846 5844 5842
5890 5891 5891 5892 5892 5893 5894 5895 5895 5896 5895 5895 5894 5893 5892 5890 5889 5888 5887 5885 5883 5881 5879 5877 5876 5874 5871 5869 5867 5865 5863 5861 5859 5857 5855 5853 5851 5848 5846 5844 5842 5839 5837
5886 5886 5887 5887 5888 5888 5889 5890 5891 5891 5891 5891 5890 5889 5888 5886 5885 5884 5882 5881 5879 5878 5875 5873 5871 5869 5867 5865 5862 5860 5858 5856 5854 5852 5850 5848 5845 5843 5841 5839 5836 5834 5832
5882 5881 5882 5882 5883 5884 5884 5885 5885 5885 5885 5886 5885 5884 5883 5882 5880 5879 5878 5876 5875 5873 5871 5869 5866 5864 5862 5859 5857 5855 5853 5851 5848 5846 5844 5842 5839 5837 5835 5833 5831 5829 5826
5876 5876 5876 5876 5878 5878 5879 5880 5880 5880 5880 5880 5879 5879 5878 5877 5875 5874 5873 5871 5869 5867 5865 5863 5861 5858 5855 5853 5851 5849 5846 5844 5842 5840 5838 5835 5833 5831 5828 5826 5824 5822 5820
5870 5870 5870 5870 5871 5872 5873 5874 5874 5874 5874 5874 5873 5873 5872 5871 5869 5868 5867 5865 5863 5861 5859 5857 5855 5852 5849 5847 5844 5842 5840 5837 5835 5833 5831 5828 5826 5823 5821 5819 5817 5815 5813
5864 5865 5865 5865 5865 5866 5866 5867 5868 5868 5868 5867 5867 5866 5865 5864 5863 5862 5860 5859 5857 5855 5852 5850 5848 5845 5842 5840 5837 5835 5833 5830 5828 5825 5823 5821 5818 5816 5814 5812 5810 5808 5806
5857 5858 5859 5859 5859 5859 5860 5861 5860 5861 5860 5860 5860 5859 5858 5857 5856 5855 5853 5852 5850 5848 5845 5843 5840 5837 5834 5831 5829 5827 5824 5822 5820 5817 5815 5813 5811 5809 5806 5804 5802 5800 5798
5850 5850 5851 5852 5853 5853 5853 5853 5852 5853 5852 5852 5852 5851 5850 5850 5849 5847 5846 5844 5842 5840 5837 5835 5832 5829 5826 5824 5821 5818 5816 5814 5811 5809 5806 5804 5802 5800 5798 5796 5794 5792 5790
5842 5843 5844 5844 5845 5845 5845 5845 5844 5844 5844 5844 5843 5843 5842 5841 5840 5839 5837 5835 5833 5831 5829 5827 5824 5821 5818 5815 5812 5810 5807 5805 5802 5800 5798 5796 5794 5792 5790 5787 5785 5783 5781
5833 5834 5835 5835 5836 5836 5836 5836 5835 5835 5835 5835 5834 5834 5833 5832 5831 5829 5828 5826 5824 5822 5820 5818 5815 5812 5809 5806 5803 5801 5798 5795 5793 5791 5789 5787 5785 5783 5781 5778 5776 5774 5772
5823 5824 5825 5826 5826 5827 5827 5827 5827 5827 5826 5825 5825 5824 5823 5822 5821 5819 5818 5817 5815 5813 5811 5808 5806 5803 5800 5797 5794 5791 5788 5786 5783 5781 5779 5777 5775 5773 5771 5769 5767 5765 5763
5813 5814 5815 5815 5816 5817 5816 5816 5817 5817 5817 5816 5815 5814 5813 5812 5811 5809 5808 5806 5805 5803 5801 5799 5796 5793 5790 5788 5785 5782 5779 5776 5774 5771 5769 5767 5765 5763 5761 5759 5757 5755 5753
5802 5803 5804 5804 5805 5806 5806 5806 5806 5806 5805 5805 5805 5804 5803 5802 5801 5799 5798 5796 5795 5793 5791 5788 5786 5783 5781 5778 5775 5772 5769 5766 5763 5760 5758 5756 5754 5752 5750 5748 5746 5744 5742